Weather History for Naples, FL

Change the Weather History Date:

Thursday, December 6, 2012

  Actual Average Record
Temperature  
Mean Temperature 72 °F 68 °F  
Max Temperature 81 °F 78 °F 88 °F (1972)
Min Temperature 63 °F 59 °F 39 °F (1981)
Degree Days  
Heating Degree Days 0 2  
Month to date heating degree days 0 7  
Since 1 July heating degree days 13 21  
Cooling Degree Days 7 5  
Month to date cooling degree days 37 30  
Year to date cooling degree days 4003 3849  
Growing Degree Days 22 (Base 50)    
Moisture  
Dew Point 65 °F    
Average Humidity 79    
Maximum Humidity 100    
Minimum Humidity 58    
Precipitation  
Precipitation 0.11 in 0.05 in 0.89 in (1977)
Month to date precipitation 0.11 0.27  
Year to date precipitation 36.26 50.71  
Snow  
Snow 0.00 in - - ()
Month to date snowfall 0.0  
Since 1 July snowfall 0.0  
Snow Depth 0.00 in    
Sea Level Pressure  
Sea Level Pressure 29.97 in    
Wind  
Wind Speed 4 mph (ENE)    
Max Wind Speed 12 mph    
Max Gust Speed 16 mph    
Visibility 10 miles    
Events Rain    
T = Trace of Precipitation, MM = Missing Value Source: NWS Daily Summary

Daily Weather History Graph

Daily Weather History Graph

Search for Another Location

Airport:

Trip Planner

Search our weather history database for the weather conditions in past years. The results will help you decide how hot, cold, wet, or windy it might be!

Date:

Astronomy

Dec. 06, 2012 Rise Set
Actual Time 7:01 AM EST 5:35 PM EST
Civil Twilight 6:36 AM EST 6:00 PM EST
Nautical Twilight 6:07 AM EST 6:29 PM EST
Astronomical Twilight 5:39 AM EST 6:57 PM EST
Moon No Moon Rise 12:25 PM EST (12/6)
Length of Visible Light 11h 24m
Length of Day
10h 34m
Waning Gibbous, 49% of the Moon is Illuminated
Dec 6
Waning Gibbous
Dec 13
New
Dec 20
First Quarter
Dec 28
Full
Jan 4
Last Quarter

Hourly Weather History & Observations

Time (EST) Temp. Heat Index Dew Point Humidity Pressure Visibility Wind Dir Wind Speed Gust Speed Precip Events Conditions
12:53 AM 66.9 °F - 64.0 °F 90% 30.03 in 10.0 mi Calm Calm - N/A   Overcast
1:53 AM 68.0 °F - 63.0 °F 84% 30.01 in 10.0 mi Calm Calm - N/A   Overcast
2:53 AM 64.9 °F - 62.1 °F 90% 29.98 in 10.0 mi ENE 3.5 mph - N/A   Partly Cloudy
3:53 AM 64.9 °F - 62.1 °F 90% 29.97 in 10.0 mi NE 3.5 mph - N/A   Clear
4:53 AM 64.9 °F - 62.1 °F 90% 29.97 in 10.0 mi NNE 3.5 mph - N/A   Clear
5:53 AM 64.0 °F - 63.0 °F 96% 29.98 in 10.0 mi NE 4.6 mph - N/A   Mostly Cloudy
6:53 AM 64.9 °F - 63.0 °F 93% 29.99 in 10.0 mi ENE 6.9 mph - N/A   Clear
7:53 AM 64.9 °F - 64.0 °F 97% 30.00 in 9.0 mi NE 4.6 mph - N/A   Clear
8:53 AM 69.1 °F - 64.9 °F 87% 30.01 in 10.0 mi ENE 5.8 mph - N/A   Clear
9:53 AM 72.0 °F - 64.9 °F 78% 30.01 in 10.0 mi ENE 8.1 mph - N/A   Scattered Clouds
10:53 AM 75.9 °F - 66.0 °F 71% 30.00 in 10.0 mi East 6.9 mph - N/A   Clear
11:53 AM 77.0 °F - 66.0 °F 69% 29.98 in 10.0 mi ENE 8.1 mph - N/A   Scattered Clouds
12:53 PM 80.1 °F 81.9 °F 64.9 °F 60% 29.94 in 10.0 mi East 4.6 mph - N/A   Scattered Clouds
1:53 PM 78.1 °F - 64.0 °F 62% 29.92 in 10.0 mi East 6.9 mph - N/A   Mostly Cloudy
2:53 PM 79.0 °F - 64.0 °F 60% 29.91 in 10.0 mi Calm Calm - N/A   Mostly Cloudy
3:53 PM 73.0 °F - 68.0 °F 84% 29.91 in 9.0 mi WSW 6.9 mph - 0.00 in Rain Light Rain
4:53 PM 73.0 °F - 66.9 °F 81% 29.93 in 10.0 mi WNW 8.1 mph - 0.00 in   Mostly Cloudy
5:53 PM 71.1 °F - 69.1 °F 93% 29.94 in 6.0 mi ESE 3.5 mph - 0.11 in Rain Light Rain
6:53 PM 71.1 °F - 68.0 °F 90% 29.94 in 10.0 mi Calm Calm - 0.00 in   Overcast
7:53 PM 70.0 °F - 68.0 °F 93% 29.96 in 10.0 mi NE 3.5 mph - 0.00 in   Overcast
8:53 PM 69.1 °F - 69.1 °F 100% 29.96 in 8.0 mi East 5.8 mph - N/A   Mostly Cloudy
9:53 PM 69.1 °F - 66.9 °F 93% 29.96 in 10.0 mi ENE 5.8 mph - N/A   Clear
10:53 PM 68.0 °F - 66.9 °F 96% 29.95 in 10.0 mi Calm Calm - N/A   Mostly Cloudy
11:53 PM 66.0 °F - 66.0 °F 100% 29.94 in 10.0 mi Calm Calm - N/A   Clear